Location: ??????
(42.0089°N, 44.3281°E)
Time: 16:54:09
(UTC+00:00)

Okean 1-7 Rocket - Pass Details

Date: 06 June 2022
Orbit: 616 x 648 km, 82.5° (Epoch: 01 July)

Event Time Altitude Azimuth Distance (km) Brightness Sun altitude
Exits shadow 00:16:53 16° 234° (SW) 1,645 5.1 -11.2°
Maximum altitude 00:19:39 28° 285° (WNW) 1,153 4.7 -10.8°
Drops below altitude 10° 00:23:29 10° 346° (NNW) 1,987 6.6 -10.3°
Sets 00:25:58 0° 358° (N) 2,898 7.6 -9.9°
